Weather reports worldwide

Advertisment
Charlwood, United Kingdom (3769): temperature & dewpoint: 10.12.2017 05:00:00 - 16.12.2017 05:00:00 (GMT)Charlwood, United Kingdom (3769): temperature -20cm & temperature -100cm: 10.12.2017 05:00:00 - 16.12.2017 05:00:00 (GMT)Charlwood, United Kingdom (3769): wind speed & gusts: 10.12.2017 05:00:00 - 16.12.2017 05:00:00 (GMT)Charlwood, United Kingdom (3769): wind direction: 10.12.2017 05:00:00 - 16.12.2017 05:00:00 (GMT)Charlwood, United Kingdom (3769): reduced air pressure: 10.12.2017 05:00:00 - 16.12.2017 05:00:00 (GMT)Charlwood, United Kingdom (3769): visibility: 10.12.2017 05:00:00 - 16.12.2017 05:00:00 (GMT)Charlwood, United Kingdom (3769): sunshine duration: 10.12.2017 05:00:00 - 16.12.2017 05:00:00 (GMT)Charlwood, United Kingdom (3769): precipitation: 10.12.2017 05:00:00 - 16.12.2017 05:00:00 (GMT)
Date & Time tt [°C] td [°C] tt -20cm [°C] tt -100cm [°C] ff [km/h] ff [kn] fx [km/h] fx [kn] dd ppp [hPa] vv [km] sd [min] rr [mm]
16.12.2017 05:00:00 -0,2 -2,2 - - 2 1 - - W 1014,4 35 0 0,0
16.12.2017 04:00:00 0,7 -1,7 - - 5 3 - - WNW 1014,0 35 0 0,0
16.12.2017 03:00:00 1,0 -1,2 - - 8 4 - - NW 1013,4 35 0 0,0
16.12.2017 02:00:00 1,2 -0,8 - - 8 4 - - NW 1012,5 30 0 0,0
16.12.2017 01:00:00 1,6 -0,5 - - 13 7 - - NW 1011,9 30 0 0,0
16.12.2017 00:00:00 1,9 0,0 - - 9 5 - - NW 1011,3 26 - 0,0
15.12.2017 23:00:00 2,2 0,3 - - 5 3 - - NNW 1010,1 21 0 0,0
15.12.2017 22:00:00 3,0 0,8 - - 8 4 - - NNW 1009,4 18 0 0,0
15.12.2017 21:00:00 4,0 1,6 - - 11 6 - - NNW 1008,2 20 0 0,0
15.12.2017 20:00:00 4,4 2,4 - - 13 7 - - NNW 1007,2 25 0 0,2
15.12.2017 19:00:00 4,0 2,5 - - 11 6 - - NW 1006,2 6 0 0,0
15.12.2017 18:00:00 4,4 1,6 - - 13 7 - - NNW 1004,9 24 0 0,0
15.12.2017 17:00:00 4,1 1,0 - - 11 6 - - NW 1003,6 50 0 0,0
15.12.2017 16:00:00 4,4 1,0 - - 13 7 - - NNW 1002,6 50 0 0,0
15.12.2017 15:00:00 5,2 1,0 - - 11 6 - - NNW 1001,3 50 18 0,0
15.12.2017 14:00:00 5,3 1,3 - - 11 6 - - NNW 999,9 30 36 0,0
15.12.2017 13:00:00 5,1 1,8 - - 15 8 - - NNW 999,0 35 48 0,0
15.12.2017 12:00:00 3,5 1,8 - - 13 7 - - NW 998,2 28 6 0,0
15.12.2017 11:00:00 3,2 1,7 - - 15 8 - - NW 997,3 25 0 0,0
15.12.2017 10:00:00 2,8 1,9 - - 11 6 - - NNW 996,2 15 0 0,0
15.12.2017 09:00:00 2,5 1,7 5,7 8,2 9 5 - - NNW 994,8 13 0 0,8
15.12.2017 08:00:00 3,0 2,7 - - 8 4 - - NNW 992,9 7 0 1,0
15.12.2017 07:00:00 2,4 1,9 - - 8 4 - - WSW 991,5 15 0 0,2
15.12.2017 06:00:00 2,4 1,5 - - 8 4 - - SW 991,1 22 0 0,4
15.12.2017 05:00:00 3,2 1,7 - - 18 10 - - WSW 991,1 14 0 0,0
15.12.2017 04:00:00 2,5 1,3 - - 11 6 - - SW 991,4 28 0 0,0
15.12.2017 03:00:00 1,7 0,7 - - 13 7 - - WSW 991,3 30 0 0,0
15.12.2017 02:00:00 1,6 0,4 - - 11 6 - - WSW 991,0 30 0 0,0
15.12.2017 01:00:00 2,6 1,1 - - 13 7 - - W 990,8 35 0 0,0
15.12.2017 00:00:00 2,7 1,2 - - 9 5 - - W 990,5 30 - 0,0
14.12.2017 23:00:00 1,9 0,5 - - 8 4 - - WSW 989,6 14 0 0,0
14.12.2017 22:00:00 2,4 1,1 - - 11 6 - - WSW 989,2 17 0 0,0
14.12.2017 21:00:00 2,2 0,6 - - 8 4 - - W 989,1 17 0 0,0
14.12.2017 20:00:00 2,4 0,8 - - 13 7 - - WSW 989,2 22 0 0,0
14.12.2017 19:00:00 1,4 0,0 - - 9 5 - - SW 989,2 30 0 0,0
14.12.2017 18:00:00 1,9 0,2 - - 9 5 - - WSW 989,2 35 0 0,0
14.12.2017 17:00:00 2,8 0,4 - - 11 6 - - WSW 989,5 35 0 0,0
14.12.2017 16:00:00 3,0 0,8 - - 9 5 - - WSW 989,9 35 0 0,0
14.12.2017 15:00:00 4,4 1,5 - - 15 8 - - WSW 990,2 50 6 0,2
14.12.2017 14:00:00 6,3 1,6 - - 15 8 - - WSW 990,6 19 42 0,0
14.12.2017 13:00:00 5,2 1,3 - - 13 7 - - WSW 991,6 28 0 0,0
14.12.2017 12:00:00 5,3 1,4 - - 13 7 - - WSW 992,4 35 12 0,0
14.12.2017 11:00:00 5,2 1,3 - - 16 9 - - WSW 993,1 27 12 0,0
14.12.2017 10:00:00 4,6 1,3 - - 16 9 - - WSW 993,7 30 0 0,0
14.12.2017 09:00:00 4,1 0,7 6,0 8,5 16 9 - - WSW 993,7 35 0 0,0
14.12.2017 08:00:00 3,3 1,2 - - 15 8 - - SW 993,8 18 0 0,0
14.12.2017 07:00:00 3,2 1,0 - - 15 8 - - WSW 993,7 27 0 0,0
14.12.2017 06:00:00 3,7 0,9 - - 21 11 - - WSW 994,3 50 0 0,0
14.12.2017 05:00:00 4,4 0,4 - - 22 12 - - WSW 994,6 45 0 0,0
14.12.2017 04:00:00 4,0 1,2 - - 21 11 - - WSW 994,3 25 0 0,0
14.12.2017 03:00:00 3,8 0,6 - - 21 11 - - WSW 994,6 26 0 0,0
14.12.2017 02:00:00 4,2 0,1 - - 22 12 - - W 994,4 28 0 0,0
14.12.2017 01:00:00 3,2 -0,4 - - 22 12 57 31 W 993,9 40 0 0,0
14.12.2017 00:00:00 3,4 -0,2 - - 22 12 - - W 993,3 45 - 0,0
13.12.2017 23:00:00 4,6 1,2 - - 26 14 48 26 W 991,9 45 0 0,0
13.12.2017 22:00:00 4,5 2,7 - - 22 12 - - W 990,7 45 0 0,8
13.12.2017 21:00:00 4,6 2,9 - - 21 11 - - WSW 991,1 18 0 0,4
13.12.2017 20:00:00 4,4 1,6 - - 15 8 - - WSW 991,7 24 0 0,0
13.12.2017 19:00:00 3,8 1,8 - - 11 6 - - WSW 992,6 45 0 0,0
13.12.2017 18:00:00 4,5 1,7 - - 9 5 - - W 992,8 45 0 0,0
13.12.2017 17:00:00 6,0 2,6 - - 15 8 48 26 W 992,6 50 0 0,2
13.12.2017 16:00:00 7,6 5,4 - - 26 14 57 31 W 991,9 50 0 1,2
13.12.2017 15:00:00 9,2 7,3 - - 18 10 - - SW 991,7 12 0 0,0
13.12.2017 14:00:00 8,8 7,6 - - 16 9 - - SW 993,6 13 0 0,2
13.12.2017 13:00:00 8,1 7,2 - - 13 7 - - SW 995,5 10 0 0,2
13.12.2017 12:00:00 7,8 7,0 - - 15 8 - - SW 997,3 10 0 0,0
13.12.2017 11:00:00 6,9 6,4 - - 11 6 - - SW 999,1 10 0 0,0
13.12.2017 10:00:00 6,3 5,8 - - 13 7 - - SW 1000,3 10 0 0,2
13.12.2017 09:00:00 5,8 5,3 5,7 8,7 11 6 - - SW 1001,1 8 0 0,4
13.12.2017 08:00:00 5,7 4,9 - - 9 5 - - SW 1001,7 18 0 0,0
13.12.2017 07:00:00 5,9 4,6 - - 13 7 - - WSW 1001,6 20 0 0,0
13.12.2017 06:00:00 6,6 4,9 - - 11 6 - - W 1001,3 25 0 0,0
13.12.2017 05:00:00 7,9 6,6 - - 16 9 - - W 1001,0 26 0 0,6
13.12.2017 04:00:00 8,5 8,1 - - 18 10 46 25 SW 1001,2 3,6 0 2,4
13.12.2017 03:00:00 8,1 7,7 - - 26 14 - - SSW 1001,6 4,9 0 0,4
13.12.2017 02:00:00 7,3 6,9 - - 16 9 - - SSW 1003,0 4,0 0 1,0
13.12.2017 01:00:00 7,1 6,7 - - 18 10 - - SSW 1004,4 3,8 0 1,0
13.12.2017 00:00:00 6,5 5,8 - - 13 7 - - SSW 1005,6 8 - 0,4
12.12.2017 23:00:00 6,2 5,5 - - 11 6 - - SSW 1006,6 13 0 0,6
12.12.2017 22:00:00 5,0 4,1 - - 9 5 - - S 1007,6 13 0 0,2
12.12.2017 21:00:00 3,5 2,8 - - 9 5 - - SSW 1008,8 35 0 0,0
12.12.2017 20:00:00 -0,3 -0,6 - - 5 3 - - SSW 1009,5 20 0 0,0
12.12.2017 19:00:00 -1,0 -1,5 - - 0 0 - - N 1010,1 10 0 0,0
12.12.2017 18:00:00 -1,1 -1,7 - - 0 0 - - N 1010,4 10 0 0,0
12.12.2017 17:00:00 -0,8 -1,6 - - 0 0 - - N 1010,5 11 0 0,0
12.12.2017 16:00:00 0,9 -1,0 - - 4 2 - - S 1010,8 9 0 0,0
12.12.2017 15:00:00 2,9 -0,3 - - 5 3 - - SSW 1010,4 25 6 0,0
12.12.2017 14:00:00 3,2 0,0 - - 8 4 - - SSW 1010,0 28 18 0,0
12.12.2017 13:00:00 3,6 0,0 - - 5 3 - - SW 1010,1 24 60 0,0
12.12.2017 12:00:00 2,8 -0,7 - - 5 3 - - WSW 1009,9 20 60 0,0
12.12.2017 11:00:00 1,5 -1,4 - - 4 2 - - SW 1010,1 25 54 0,0
12.12.2017 10:00:00 -0,7 -1,3 - - 4 2 - - SE 1009,4 11 60 0,0
12.12.2017 09:00:00 -2,4 -2,7 6,2 8,7 5 3 - - SW 1009,2 9 0 0,0
12.12.2017 08:00:00 -4,5 -5,0 - - 5 3 - - WSW 1008,1 5 0 0,0
12.12.2017 07:00:00 -4,4 -5,1 - - 5 3 - - SW 1006,9 7 0 0,0
12.12.2017 06:00:00 -3,7 -4,6 - - 2 1 - - SW 1005,9 7 0 0,0
12.12.2017 05:00:00 -2,3 -3,3 - - 8 4 - - WNW 1005,1 17 0 0,0
12.12.2017 04:00:00 -2,5 -3,9 - - 4 2 - - WNW 1004,2 14 0 0,0
12.12.2017 03:00:00 -1,8 -3,2 - - 8 4 - - W 1003,1 18 0 0,0
12.12.2017 02:00:00 -1,8 -3,6 - - 4 2 - - W 1001,8 18 0 0,0
12.12.2017 01:00:00 -1,8 -3,1 - - 5 3 - - WNW 1000,3 16 0 0,0
12.12.2017 00:00:00 -1,1 -3,8 - - 5 3 - - W 999,2 40 - 0,0
11.12.2017 23:00:00 -0,2 -3,7 - - 11 6 - - WNW 997,8 50 0 0,0
11.12.2017 22:00:00 0,1 -3,4 - - 11 6 - - NW 996,9 50 0 0,0
11.12.2017 21:00:00 0,2 -2,4 - - 11 6 - - NW 995,5 40 0 0,0
11.12.2017 20:00:00 0,4 -1,6 - - 11 6 - - NW 993,7 35 0 0,0
11.12.2017 19:00:00 0,8 -1,1 - - 11 6 - - NW 992,0 35 0 0,0
11.12.2017 18:00:00 1,4 -0,9 - - 15 8 - - NW 990,2 45 0 0,0
11.12.2017 17:00:00 2,0 -0,4 - - 13 7 - - NNW 988,4 45 0 0,0
11.12.2017 16:00:00 2,6 0,5 - - 13 7 - - N 986,3 50 0 0,2
11.12.2017 15:00:00 2,2 1,4 - - 15 8 - - N 984,6 16 0 0,4
11.12.2017 14:00:00 1,4 0,6 - - 15 8 - - N 983,1 6 0 0,6
11.12.2017 13:00:00 2,0 1,2 - - 16 9 - - N 981,6 9 0 0,4
11.12.2017 12:00:00 1,8 1,1 - - 21 11 - - NNE 980,5 12 0 0,8
11.12.2017 11:00:00 1,5 0,9 - - 21 11 - - NNE 979,8 8 0 1,2
11.12.2017 10:00:00 1,5 0,8 - - 24 13 - - NNE 978,7 8 0 1,0
11.12.2017 09:00:00 1,6 1,0 6,5 9,0 24 13 - - NNE 978,1 7 0 1,4
11.12.2017 08:00:00 1,6 1,1 - - 22 12 - - NNE 977,5 6 0 1,4
11.12.2017 07:00:00 1,9 1,2 - - 21 11 - - NNE 977,2 7 0 1,2
11.12.2017 06:00:00 2,3 1,6 - - 21 11 - - NE 977,2 7 0 0,0
11.12.2017 05:00:00 2,0 1,2 - - 15 8 - - NE 977,5 14 0 0,0
11.12.2017 04:00:00 1,7 1,0 - - 18 10 - - NE 978,0 8 0 0,0
11.12.2017 03:00:00 1,3 0,8 - - 11 6 - - NE 979,8 6 0 0,0
11.12.2017 02:00:00 1,2 0,6 - - 13 7 - - ENE 980,6 6 0 0,0
11.12.2017 01:00:00 1,0 0,5 - - 11 6 - - ENE 980,3 6 0 0,0
11.12.2017 00:00:00 0,9 0,4 - - 9 5 - - ENE 981,2 6 - 0,0
10.12.2017 23:00:00 0,8 0,3 - - 11 6 - - E 980,9 8 0 0,0
10.12.2017 22:00:00 0,8 0,3 - - 9 5 - - ENE 980,8 7 0 0,0
10.12.2017 21:00:00 0,7 0,3 - - 8 4 - - ENE 980,7 7 0 0,0
10.12.2017 20:00:00 0,4 0,0 - - 2 1 - - N 980,3 8 0 0,0
10.12.2017 19:00:00 0,3 -0,5 - - 2 1 - - W 979,8 9 0 0,0
10.12.2017 18:00:00 1,2 0,1 - - 4 2 - - N 979,4 24 0 0,0
10.12.2017 17:00:00 1,4 0,2 - - 8 4 - - WNW 978,8 50 0 0,0
10.12.2017 16:00:00 1,3 0,2 - - 9 5 - - WNW 977,8 50 0 0,0
10.12.2017 15:00:00 2,0 0,6 - - 9 5 - - WNW 976,9 22 0 0,0
10.12.2017 14:00:00 2,8 0,7 - - 18 10 57 31 WNW 975,1 50 0 0,2
10.12.2017 13:00:00 4,3 2,4 - - 28 15 72 39 W 972,9 13 0 1,2
10.12.2017 12:00:00 6,7 5,1 - - 31 17 61 33 WSW 971,3 5 0 1,0
10.12.2017 11:00:00 6,1 5,1 - - 16 9 46 25 W 972,5 11 0 1,0
10.12.2017 10:00:00 3,8 3,5 - - 5 3 - - W 973,0 4,9 0 0,2
10.12.2017 09:00:00 2,9 2,5 6,7 9,2 8 4 - - NNE 973,1 18 0 1,2
10.12.2017 08:00:00 2,6 2,0 - - 18 10 - - E 975,4 5 0 3,0
10.12.2017 07:00:00 3,3 2,7 - - 18 10 - - SE 980,2 3,8 0 3,0
10.12.2017 06:00:00 3,7 3,3 - - 15 8 - - SE 984,3 4,9 0 3,6
10.12.2017 05:00:00 2,8 2,8 - - 11 6 - - E 988,3 2,4 0 1,8

tt = temperature
td = dewpoint
tt -20cm = temperature -20cm
tt -100cm = temperature -100cm
ff = wind speed
fx = gusts
dd = wind direction
ppp = reduced air pressure
vv = visibility
sd = sunshine duration
rr = precipitation

Next stations